When you browse on this site, cookies collect data to enhance your experience and personalize the content and advertising you see.
Visit our Privacy Policy to learn more. By continuing to use the site, you agree to this use of cookies and data.
  • In Latvia
  • List of Countries
  • For 7 days
  • Water Temperature
  • Satellite Maps
  • Weather Map
  • Weather Widgets
  • user-avatar
    Login

    Hourly Weather Kreshnevo

    Today, 23 May, Thursday

    Time Temperature Precipitation Wind Pressure Humidity
    00:00 +9°C° 0 mm 0 mps 745 mmHg 96%
    01:00 +9°C° 0 mm 0 mps 745 mmHg 96%
    02:00 +9°C° 0 mm 0 mps 745 mmHg 96%
    03:00 +9°C° 0 mm 0 mps 744 mmHg 94%
    04:00 +10°C° 0 mm 0 mps 744 mmHg 93%
    05:00 +11°C° 0 mm 0 mps 744 mmHg 91%
    06:00 +13°C° 0 mm 1 mps 744 mmHg 86%
    07:00 +14°C° 0 mm 1 mps 744 mmHg 81%
    08:00 +16°C° 0 mm 2 mps 744 mmHg 76%
    09:00 +15°C° 0.1 mm 2 mps 744 mmHg 78%
    10:00 +15°C° 0.1 mm 2 mps 744 mmHg 81%
    11:00 +14°C° 0.1 mm 3 mps 744 mmHg 83%
    12:00 +12°C° 0 mm 3 mps 745 mmHg 84%
    13:00 +11°C° 0 mm 4 mps 745 mmHg 85%
    14:00 +10°C° 0 mm 4 mps 745 mmHg 86%
    15:00 +10°C° 0 mm 4 mps 745 mmHg 82%
    16:00 +10°C° 0 mm 4 mps 746 mmHg 78%
    17:00 +10°C° 0 mm 4 mps 746 mmHg 73%
    18:00 +9°C° 0 mm 3 mps 747 mmHg 76%
    19:00 +9°C° 0 mm 2 mps 747 mmHg 79%
    20:00 +9°C° 0 mm 1 mps 747 mmHg 83%
    21:00 +7°C° 0 mm 2 mps 748 mmHg 83%
    22:00 +6°C° 0 mm 2 mps 748 mmHg 83%
    23:00 +5°C° 0 mm 2 mps 749 mmHg 84%

    Tomorrow, 24 May, Friday

    Time Temperature Precipitation Wind Pressure Humidity
    00:00 +5°C° 0 mm 2 mps 749 mmHg 80%
    01:00 +4°C° 0 mm 2 mps 750 mmHg 76%
    02:00 +3°C° 0 mm 2 mps 750 mmHg 73%
    03:00 +4°C° 0 mm 2 mps 750 mmHg 68%
    04:00 +5°C° 0 mm 2 mps 751 mmHg 64%
    05:00 +4°C° 0 mm 3 mps 751 mmHg 59%
    06:00 +7°C° 0 mm 3 mps 751 mmHg 53%
    07:00 +8°C° 0 mm 3 mps 751 mmHg 47%
    08:00 +10°C° 0 mm 3 mps 752 mmHg 41%
    09:00 +11°C° 0 mm 3 mps 752 mmHg 39%
    10:00 +12°C° 0 mm 3 mps 751 mmHg 36%
    11:00 +13°C° 0 mm 3 mps 751 mmHg 33%
    12:00 +13°C° 0 mm 3 mps 751 mmHg 33%
    13:00 +13°C° 0 mm 3 mps 751 mmHg 32%
    14:00 +14°C° 0 mm 3 mps 751 mmHg 31%
    15:00 +14°C° 0 mm 3 mps 750 mmHg 32%
    16:00 +14°C° 0 mm 3 mps 750 mmHg 33%
    17:00 +14°C° 0 mm 2 mps 750 mmHg 34%
    18:00 +13°C° 0 mm 2 mps 750 mmHg 40%
    19:00 +10°C° 0 mm 2 mps 750 mmHg 46%
    20:00 +8°C° 0 mm 2 mps 750 mmHg 51%
    21:00 +7°C° 0 mm 2 mps 750 mmHg 55%
    22:00 +7°C° 0 mm 2 mps 750 mmHg 59%
    23:00 +7°C° 0 mm 2 mps 750 mmHg 63%

    Day after tomorrow, 25 May, Saturday

    Time Temperature Precipitation Wind Pressure Humidity
    00:00 +7°C° 0 mm 2 mps 750 mmHg 65%
    01:00 +7°C° 0 mm 3 mps 750 mmHg 67%
    02:00 +7°C° 0 mm 3 mps 750 mmHg 69%
    03:00 +7°C° 0 mm 3 mps 749 mmHg 68%
    04:00 +8°C° 0 mm 3 mps 749 mmHg 67%
    05:00 +9°C° 0 mm 3 mps 749 mmHg 65%
    06:00 +10°C° 0 mm 4 mps 748 mmHg 65%
    07:00 +11°C° 0 mm 4 mps 748 mmHg 65%
    08:00 +12°C° 0 mm 4 mps 748 mmHg 65%
    09:00 +12°C° 0.1 mm 4 mps 747 mmHg 69%
    10:00 +12°C° 0.1 mm 4 mps 747 mmHg 73%
    11:00 +12°C° 0.1 mm 4 mps 746 mmHg 77%
    12:00 +12°C° 0.3 mm 4 mps 746 mmHg 79%
    13:00 +12°C° 0.3 mm 3 mps 745 mmHg 81%
    14:00 +12°C° 0.3 mm 3 mps 745 mmHg 83%
    15:00 +12°C° 0.7 mm 3 mps 744 mmHg 86%
    16:00 +13°C° 0.7 mm 2 mps 744 mmHg 89%
    17:00 +13°C° 0.7 mm 2 mps 743 mmHg 93%
    18:00 +12°C° 0.2 mm 3 mps 742 mmHg 93%
    19:00 +13°C° 0.2 mm 3 mps 742 mmHg 93%
    20:00 +14°C° 0.2 mm 3 mps 741 mmHg 93%
    21:00 +14°C° 0.3 mm 3 mps 741 mmHg 94%
    22:00 +14°C° 0.3 mm 4 mps 740 mmHg 95%
    23:00 +14°C° 0.3 mm 4 mps 740 mmHg 96%

    26 May, Sunday

    Time Temperature Precipitation Wind Pressure Humidity
    00:00 +14°C° 1 mm 4 mps 739 mmHg 96%
    01:00 +14°C° 1 mm 4 mps 739 mmHg 97%
    02:00 +14°C° 1 mm 3 mps 739 mmHg 97%
    03:00 +13°C° 0 mm 3 mps 739 mmHg 96%
    04:00 +13°C° 0 mm 3 mps 739 mmHg 95%
    05:00 +13°C° 0 mm 3 mps 739 mmHg 94%
    06:00 +13°C° 0 mm 3 mps 739 mmHg 87%
    07:00 +14°C° 0 mm 3 mps 740 mmHg 80%
    08:00 +16°C° 0 mm 3 mps 740 mmHg 72%
    09:00 +17°C° 0 mm 3 mps 740 mmHg 64%
    10:00 +18°C° 0 mm 3 mps 740 mmHg 55%
    11:00 +19°C° 0 mm 3 mps 740 mmHg 46%
    12:00 +20°C° 0 mm 3 mps 740 mmHg 45%
    13:00 +20°C° 0 mm 3 mps 740 mmHg 44%
    14:00 +20°C° 0 mm 3 mps 740 mmHg 44%
    15:00 +19°C° 0 mm 3 mps 740 mmHg 48%
    16:00 +18°C° 0 mm 3 mps 740 mmHg 53%
    17:00 +17°C° 0 mm 3 mps 740 mmHg 57%
    18:00 +16°C° 0 mm 3 mps 740 mmHg 64%
    19:00 +14°C° 0 mm 2 mps 740 mmHg 72%
    20:00 +12°C° 0 mm 1 mps 740 mmHg 79%
    21:00 +11°C° 0 mm 1 mps 740 mmHg 83%
    22:00 +9°C° 0 mm 0 mps 740 mmHg 87%
    23:00 +8°C° 0 mm 0 mps 740 mmHg 91%

    27 May, Monday

    Time Temperature Precipitation Wind Pressure Humidity
    00:00 +8°C° 0 mm 0 mps 740 mmHg 92%
    01:00 +8°C° 0 mm 1 mps 740 mmHg 92%
    02:00 +8°C° 0 mm 1 mps 740 mmHg 93%
    03:00 +9°C° 0 mm 1 mps 740 mmHg 90%
    04:00 +10°C° 0 mm 1 mps 739 mmHg 86%
    05:00 +11°C° 0 mm 1 mps 739 mmHg 83%
    06:00 +12°C° 0 mm 1 mps 739 mmHg 79%
    07:00 +13°C° 0 mm 1 mps 739 mmHg 76%
    08:00 +14°C° 0 mm 1 mps 739 mmHg 72%
    09:00 +14°C° 0.5 mm 1 mps 739 mmHg 76%
    10:00 +14°C° 0.5 mm 1 mps 739 mmHg 79%
    11:00 +13°C° 0.5 mm 0 mps 739 mmHg 83%
    12:00 +14°C° 0.5 mm 1 mps 740 mmHg 83%
    13:00 +14°C° 0.5 mm 1 mps 740 mmHg 83%
    14:00 +14°C° 0.5 mm 1 mps 740 mmHg 82%
    15:00 +14°C° 0.1 mm 1 mps 741 mmHg 82%
    16:00 +14°C° 0.1 mm 2 mps 741 mmHg 82%
    17:00 +14°C° 0.1 mm 2 mps 742 mmHg 81%
    18:00 +14°C° 0 mm 2 mps 742 mmHg 85%
    19:00 +13°C° 0 mm 2 mps 743 mmHg 88%
    20:00 +12°C° 0 mm 2 mps 743 mmHg 92%
    21:00 +10°C° 0 mm 3 mps 744 mmHg 93%
    22:00 +10°C° 0 mm 3 mps 744 mmHg 94%
    23:00 +10°C° 0 mm 3 mps 745 mmHg 94%

    28 May, Tuesday

    Time Temperature Precipitation Wind Pressure Humidity
    00:00 +9°C° 0 mm 3 mps 745 mmHg 95%
    01:00 +8°C° 0 mm 3 mps 746 mmHg 95%
    02:00 +8°C° 0 mm 2 mps 746 mmHg 95%
    03:00 +8°C° 0 mm 2 mps 747 mmHg 92%
    04:00 +9°C° 0 mm 2 mps 747 mmHg 89%
    05:00 +10°C° 0 mm 2 mps 748 mmHg 86%
    06:00 +13°C° 0 mm 2 mps 748 mmHg 78%
    07:00 +15°C° 0 mm 2 mps 748 mmHg 71%
    08:00 +17°C° 0 mm 2 mps 748 mmHg 64%
    09:00 +17°C° 0.1 mm 2 mps 748 mmHg 62%
    10:00 +18°C° 0.1 mm 3 mps 749 mmHg 60%
    11:00 +19°C° 0.1 mm 3 mps 749 mmHg 58%
    12:00 +19°C° 0.5 mm 3 mps 749 mmHg 60%
    13:00 +19°C° 0.5 mm 3 mps 749 mmHg 63%
    14:00 +19°C° 0.5 mm 3 mps 749 mmHg 65%
    15:00 +19°C° 0.3 mm 3 mps 749 mmHg 67%
    16:00 +19°C° 0.3 mm 3 mps 749 mmHg 69%
    17:00 +18°C° 0.3 mm 3 mps 749 mmHg 71%
    18:00 +17°C° 0.1 mm 2 mps 750 mmHg 77%
    19:00 +15°C° 0.1 mm 2 mps 750 mmHg 83%
    20:00 +14°C° 0.1 mm 2 mps 750 mmHg 88%
    21:00 +13°C° 0 mm 1 mps 750 mmHg 90%
    22:00 +12°C° 0 mm 1 mps 750 mmHg 91%
    23:00 +12°C° 0 mm 1 mps 751 mmHg 92%
    Show more